Cloud_Cover
0 0 0 0 0 0 0 0 0 0 6 16 15 26 20 11 8 0 1 23 41 58 59 100 94 26 48 96 91 51 55 36 47 5 5 5 16 63 49 68 5 5 5
0 0 0 0 0 0 0 0 0 0 0 0 4 16 23 28 1 0 0 1 22 35 90 100 99 75 99 40 100 100 33 15 5 4 5 4 5 5 5 5 5 5 16
0 0 0 0 0 0 0 0 0 0 0 0 18 7 1 0 9 0 0 0 22 7 19 70 100 94 100 97 100 97 98 92 92 2 3 3 1 13 5 5 5 5 5
0 0 0 0 0 0 0 0 0 0 1 19 17 14 0 8 36 49 0 3 29 6 0 0 15 53 98 100 100 96 84 99 65 43 32 18 53 25 27 5 6 5 5
0 0 0 0 0 0 0 0 0 14 22 7 2 0 46 95 93 97 39 2 33 28 27 0 0 0 18 52 90 100 96 99 100 100 100 79 73 100 55 78 32 60 5
0 0 0 0 0 0 0 0 26 26 20 5 6 100 100 100 100 100 100 68 25 87 66 4 23 13 49 21 100 100 5 80 100 100 100 100 100 100 26 37 99 100 55
0 0 0 0 0 0 5 37 54 37 0 6 74 100 100 100 100 100 100 100 81 72 65 8 0 27 83 83 18 93 40 34 100 100 99 100 100 100 100 100 100 100 12
0 0 0 0 0 7 22 25 52 66 1 13 100 100 100 100 100 99 90 79 52 25 99 34 27 73 97 94 89 74 79 26 55 30 100 100 100 84 100 100 100 99 41
0 0 0 0 0 3 4 8 66 67 6 100 100 100 100 100 100 100 100 100 100 100 100 99 100 92 37 98 100 97 100 91 51 42 100 100 100 100 100 100 100 100 75
0 0 0 0 0 1 5 100 30 77 18 100 100 100 100 100 100 100 100 100 100 100 100 100 95 100 100 100 100 100 100 100 97 100 89 100 100 77 100 100 81 100 19
2 5 0 0 0 4 97 96 10 53 89 100 100 100 100 100 100 100 100 100 100 100 100 100 100 100 100 100 100 100 100 100 100 100 100 100 69 92 100 100 100 100 100
5 0 0 0 3 4 39 100 32 93 100 100 100 100 100 100 100 100 100 100 100 100 100 100 100 100 100 100 100 100 100 100 76 97 100 100 100 100 72 97 100 70 100
0 0 0 0 0 5 9 100 100 100 100 100 100 100 100 100 100 100 100 100 100 100 100 100 100 100 100 100 100 100 100 100 100 100 100 100 100 96 97 95 100 100 100
0 0 0 0 0 13 66 100 100 100 100 99 100 100 100 100 100 100 100 100 100 100 100 100 100 100 100 100 100 100 100 100 100 100 100 100 100 100 100 100 100 100 100
0 0 0 0 0 80 74 100 100 100 100 100 100 100 100 100 100 100 100 100 100 100 100 100 100 100 100 100 100 100 100 100 100 100 100 100 100 100 100 100 100 100 100
0 0 0 0 0 82 100 100 100 100 100 100 100 100 100 100 100 100 100 100 100 100 100 100 100 100 100 100 100 100 100 100 100 100 100 100 100 100 100 100 100 100 100
0 0 0 0 4 98 100 100 100 100 100 100 100 100 100 100 100 100 100 100 100 99 82 99 87 100 93 100 100 100 100 100 100 100 100 100 100 100 100 100 100 100 100
0 3 5 5 5 100 100 100 100 100 100 100 100 100 100 100 100 100 100 100 100 100 100 99 100 96 54 40 80 91 100 100 100 100 100 100 100 100 100 100 100 100 100
5 5 97 5 66 100 100 100 100 100 100 100 100 100 100 100 100 100 100 100 100 100 100 100 100 100 100 98 85 98 100 100 99 100 100 100 100 100 100 100 100 100 100
14 59 100 98 94 100 100 100 100 100 100 100 100 100 100 100 100 100 100 100 100 100 100 100 100 75 61 100 96 68 100 100 100 100 100 100 100 100 100 100 100 100 100
82 94 100 100 100 75 95 100 100 100 100 100 100 100 100 100 100 100 100 100 100 100 100 100 100 100 100 100 97 94 100 100 100 100 100 100 100 86 94 76 100 100 100
99 100 100 100 100 100 100 100 100 100 100 100 100 100 100 100 100 100 100 100 100 100 100 100 100 100 100 95 100 100 98 100 97 86 100 100 99 93 70 100 100 100 100
100 100 100 100 32 70 44 75 100 96 73 100 100 100 100 100 100 100 100 100 100 87 100 65 94 100 100 100 100 100 5 14 97 100 100 99 88 85 90 100 97 68 80
100 100 100 84 87 48 80 24 5 11 93 98 100 100 100 100 100 99 73 100 100 99 100 100 100 100 100 99 100 100 100 100 100 100 100 100 98 33 57 100 100 100 100
100 100 100 100 100 20 6 5 4 5 35 100 100 100 100 100 100 100 100 87 92 93 100 100 99 90 50 21 34 9 54 100 27 66 19 5 5 5 16 5 5 3 0
100 100 100 100 100 100 100 53 74 99 7 5 63 100 100 100 87 67 81 79 32 10 5 5 5 5 5 5 8 69 100 100 40 92 9 1 0 3 3 3 5 5 5